Погода в Заветном

Россия / Приморский край     44°42′33″N   134°41′50″E
темп.,
°C
ветер,
м/с
пор.,
м/с
влажн.,
%
обл.,
%
осадки,
мм/ч
давл.,
гПа
погр.,
м
22 января, сб
сб2201:00−27в11100100 0.0 10359
04:00−28в11100100 0.0 10359
07:00−28в1110085 0.0 103510
10:00−21с01945 0.0 103364
13:00−14сз12764 0.0 1030367
16:00−12зсз127749 0.0 1029534
19:00−22юв0010049 0.0 10319
22:00−25вюв1110093 0.0 10329
23 января, вс
вс2301:00−26в1110099 0.0 10329
04:00−27в11100100 0.0 10329
07:00−27в11100100 0.0 10319
10:00−20ссз119853 0.0 103067
13:00−14зсз237618 0.0 1027501
16:00−13зсз3682100 0.0 1026755
19:00−20з1110099 0.1 102812
22:00−23з11100100 0.1 103012
24 января, пн
пн2401:00−23сз00100100 0.1 103015
04:00−24сз11100100 0.1 103018
07:00−24с01100100 0.1 103014
10:00−20зсз119799 0.1 103096
13:00−14зсз2384100 0.0 1028552
16:00−12зсз2483100 0.1 1026624
19:00−20ююв1110083 0.0 10299
22:00−23вюв1110099 0.0 10299
25 января, вт
вт2501:00−24в11100100 0.0 10299
04:00−21в11100100 0.0 102713
07:00−21в1199100 0.0 102610
10:00−15ссв1188100 0.0 102475
13:00−9сз1175100 0.0 1021326
16:00−8зсз117692 0.0 1020434
19:00−16юв119898 0.0 10229
22:00−18вюв1199100 0.0 10239
26 января, ср
ср2601:00−18в11100100 0.0 10249
04:00−20в1110082 0.0 10249
07:00−22в1110093 0.0 10249
10:00−15сз119376 0.0 102383
13:00−10сз2383100 0.0 1021551
16:00−10зсз4589100 0.2 1021736
19:00−14зсз239997 0.3 102381
22:00−18зсз11100100 0.4 102619